User: anonymous
Location: Unspecified
(0.0000°N, 0.0000°E)
Time: 09:33:08
(UTC+02:00)
Language:

Ariane H10 - Orbit

View from above orbital plane
View from above orbital plane
View from above satellite
View from above satellite

Ground track
Ground track

The orbit data is extracted from the following two-line orbital elements,

1 19122U 88040B   14257.88605135  .00000654  00000-0  39869-2 0   308
2 19122 006.9689 222.2418 7151459 055.1639 060.4608 02.32273116173469
Epoch (UTC): 14 September 2014 21:15:54
Eccentricity: 0.7151459
inclination: 6.9689°
perigee height: 482 km
apogee height: 34930 km
right ascension of ascending node: 222.2418°
argument of perigee: 55.1639°
revolutions per day: 2.32273116
mean anomaly at epoch: 60.4608°
orbit number at epoch: 17346

The dashed part of the orbit path shows where the satellite is in the earth's shadow,  

DLR